Time,TemperatureF,DewpointF,PressureIn,WindDirection,WindDirectionDegrees,WindSpeedMPH,WindSpeedGustMPH,Humidity,HourlyPrecipIn,Conditions,Clouds,dailyrainin,SoftwareType,DateUTC
2013-03-01 00:10:00,31.1,29.6,29.51,NNW,338,0.0,4.0,94,0.00,,,0.00,WeatherCatV1.13B119,2013-03-01 05:10:00,
2013-03-01 00:15:00,31.1,29.6,29.51,NNW,338,0.0,4.0,94,0.00,,,0.00,WeatherCatV1.13B119,2013-03-01 05:15:00,
2013-03-01 00:20:00,31.1,29.6,29.51,NNW,338,0.0,4.0,94,0.00,,,0.00,WeatherCatV1.13B119,2013-03-01 05:20:00,
2013-03-01 00:25:00,30.9,30.9,29.51,NNE,22,1.0,4.0,100,0.00,,,0.00,WeatherCatV1.13B119,2013-03-01 05:25:00,
2013-03-01 00:30:00,30.9,30.9,29.51,NNE,22,1.0,4.0,100,0.00,,,0.00,WeatherCatV1.13B119,2013-03-01 05:30:00,
2013-03-01 00:35:00,30.9,30.9,29.51,NNE,22,1.0,4.0,100,0.00,,,0.00,WeatherCatV1.13B119,2013-03-01 05:35:00,
2013-03-01 00:40:00,30.7,29.2,29.51,NNE,22,0.0,2.0,94,0.00,,,0.00,WeatherCatV1.13B119,2013-03-01 05:40:00,
2013-03-01 00:45:00,30.7,29.2,29.51,NNE,22,0.0,2.0,94,0.00,,,0.00,WeatherCatV1.13B119,2013-03-01 05:45:00,
2013-03-01 00:50:00,30.7,29.2,29.51,NNE,22,0.0,2.0,94,0.00,,,0.00,WeatherCatV1.13B119,2013-03-01 05:50:00,
2013-03-01 00:55:00,30.6,29.1,29.51,NNE,22,0.0,0.0,94,0.00,,,0.00,WeatherCatV1.13B119,2013-03-01 05:55:00,
2013-03-01 01:00:00,30.6,29.1,29.51,NNE,22,0.0,0.0,94,0.00,,,0.00,WeatherCatV1.13B119,2013-03-01 06:00:00,
2013-03-01 01:05:00,30.6,29.1,29.51,NNE,22,0.0,0.0,94,0.00,,,0.00,WeatherCatV1.13B119,2013-03-01 06:05:00,
2013-03-01 01:10:00,30.5,29.0,29.51,NNE,22,0.0,2.0,94,0.00,,,0.00,WeatherCatV1.13B119,2013-03-01 06:10:00,
2013-03-01 01:15:00,30.5,29.0,29.51,NNE,22,0.0,2.0,94,0.00,,,0.00,WeatherCatV1.13B119,2013-03-01 06:15:00,
2013-03-01 01:20:00,30.5,29.0,29.51,NNE,22,0.0,2.0,94,0.00,,,0.00,WeatherCatV1.13B119,2013-03-01 06:20:00,
2013-03-01 01:25:00,30.6,29.1,29.51,NNE,22,0.0,2.0,94,0.00,,,0.00,WeatherCatV1.13B119,2013-03-01 06:25:00,
2013-03-01 01:30:00,30.6,29.1,29.51,NNE,22,0.0,2.0,94,0.00,,,0.00,WeatherCatV1.13B119,2013-03-01 06:30:00,
2013-03-01 01:35:00,30.6,29.1,29.51,NNE,22,0.0,2.0,94,0.00,,,0.00,WeatherCatV1.13B119,2013-03-01 06:35:00,
2013-03-01 01:40:00,30.6,29.1,29.52,NNE,22,0.0,2.0,94,0.00,,,0.00,WeatherCatV1.13B119,2013-03-01 06:40:00,
2013-03-01 01:45:00,30.6,29.1,29.52,NNE,22,0.0,2.0,94,0.00,,,0.00,WeatherCatV1.13B119,2013-03-01 06:45:00,
2013-03-01 01:50:00,30.6,29.1,29.52,NNE,22,0.0,2.0,94,0.00,,,0.00,WeatherCatV1.13B119,2013-03-01 06:50:00,
2013-03-01 01:55:00,30.6,29.1,29.51,NNE,22,0.0,2.0,94,0.00,,,0.00,WeatherCatV1.13B119,2013-03-01 06:55:00,
2013-03-01 02:00:00,30.6,29.1,29.51,NNE,22,0.0,2.0,94,0.00,,,0.00,WeatherCatV1.13B119,2013-03-01 07:00:00,
2013-03-01 02:05:00,30.6,29.1,29.51,NNE,22,0.0,2.0,94,0.00,,,0.00,WeatherCatV1.13B119,2013-03-01 07:05:00,
2013-03-01 02:10:00,30.7,29.4,29.52,NNE,22,0.0,2.0,95,0.00,,,0.00,WeatherCatV1.13B119,2013-03-01 07:10:00,
2013-03-01 02:15:00,30.7,29.4,29.52,NNE,22,0.0,2.0,95,0.00,,,0.00,WeatherCatV1.13B119,2013-03-01 07:15:00,
2013-03-01 02:20:00,30.7,29.4,29.52,NNE,22,0.0,2.0,95,0.00,,,0.00,WeatherCatV1.13B119,2013-03-01 07:20:00,
2013-03-01 02:25:00,30.7,29.4,29.52,NNE,22,0.0,1.0,95,0.00,,,0.00,WeatherCatV1.13B119,2013-03-01 07:25:00,
2013-03-01 02:30:00,30.7,29.4,29.52,NNE,22,0.0,1.0,95,0.00,,,0.00,WeatherCatV1.13B119,2013-03-01 07:30:00,
2013-03-01 02:35:00,30.7,29.4,29.52,NNE,22,0.0,1.0,95,0.00,,,0.00,WeatherCatV1.13B119,2013-03-01 07:35:00,
2013-03-01 02:40:00,30.7,29.4,29.52,NNE,22,0.0,1.0,95,0.00,,,0.00,WeatherCatV1.13B119,2013-03-01 07:40:00,
2013-03-01 02:45:00,30.7,29.4,29.52,NNE,22,0.0,1.0,95,0.00,,,0.00,WeatherCatV1.13B119,2013-03-01 07:45:00,
2013-03-01 02:50:00,30.7,29.4,29.52,NNE,22,0.0,1.0,95,0.00,,,0.00,WeatherCatV1.13B119,2013-03-01 07:50:00,
2013-03-01 02:55:00,30.8,29.5,29.51,NNE,22,0.0,2.0,95,0.00,,,0.00,WeatherCatV1.13B119,2013-03-01 07:55:00,
2013-03-01 03:00:00,30.8,29.5,29.51,NNE,22,0.0,2.0,95,0.00,,,0.00,WeatherCatV1.13B119,2013-03-01 08:00:00,
2013-03-01 03:05:00,30.8,29.5,29.51,NNE,22,0.0,2.0,95,0.00,,,0.00,WeatherCatV1.13B119,2013-03-01 08:05:00,
2013-03-01 03:10:00,30.7,29.4,29.50,NNE,22,0.0,2.0,95,0.00,,,0.00,WeatherCatV1.13B119,2013-03-01 08:10:00,
2013-03-01 03:15:00,30.7,29.4,29.50,NNE,22,0.0,2.0,95,0.00,,,0.00,WeatherCatV1.13B119,2013-03-01 08:15:00,
2013-03-01 03:20:00,30.7,29.4,29.50,NNE,22,0.0,2.0,95,0.00,,,0.00,WeatherCatV1.13B119,2013-03-01 08:20:00,
2013-03-01 03:25:00,30.5,29.2,29.50,NNE,22,0.0,2.0,95,0.00,,,0.00,WeatherCatV1.13B119,2013-03-01 08:25:00,
2013-03-01 03:30:00,30.5,29.2,29.50,NNE,22,0.0,2.0,95,0.00,,,0.00,WeatherCatV1.13B119,2013-03-01 08:30:00,
2013-03-01 03:35:00,30.5,29.2,29.50,NNE,22,0.0,2.0,95,0.00,,,0.00,WeatherCatV1.13B119,2013-03-01 08:35:00,
2013-03-01 03:40:00,30.3,29.0,29.50,NNE,22,1.0,4.0,95,0.00,,,0.00,WeatherCatV1.13B119,2013-03-01 08:40:00,
2013-03-01 03:45:00,30.3,29.0,29.50,NNE,22,1.0,4.0,95,0.00,,,0.00,WeatherCatV1.13B119,2013-03-01 08:45:00,
2013-03-01 03:50:00,30.3,29.0,29.50,NNE,22,1.0,4.0,95,0.00,,,0.00,WeatherCatV1.13B119,2013-03-01 08:50:00,
2013-03-01 03:55:00,30.2,28.9,29.51,NE,45,2.0,6.0,95,0.00,,,0.00,WeatherCatV1.13B119,2013-03-01 08:55:00,
2013-03-01 04:00:00,30.2,28.9,29.51,NE,45,2.0,6.0,95,0.00,,,0.00,WeatherCatV1.13B119,2013-03-01 09:00:00,
2013-03-01 04:05:00,30.2,28.9,29.51,NE,45,2.0,6.0,95,0.00,,,0.00,WeatherCatV1.13B119,2013-03-01 09:05:00,
2013-03-01 04:10:00,30.1,28.9,29.51,ESE,112,1.0,3.0,95,0.00,,,0.00,WeatherCatV1.13B119,2013-03-01 09:10:00,
2013-03-01 04:15:00,30.1,28.9,29.51,ESE,112,1.0,3.0,95,0.00,,,0.00,WeatherCatV1.13B119,2013-03-01 09:15:00,
2013-03-01 04:20:00,30.1,28.9,29.51,ESE,112,1.0,3.0,95,0.00,,,0.00,WeatherCatV1.13B119,2013-03-01 09:20:00,
2013-03-01 04:25:00,29.8,28.5,29.52,North,0,1.0,5.0,95,0.00,,,0.00,WeatherCatV1.13B119,2013-03-01 09:25:00,
2013-03-01 04:30:00,29.8,28.5,29.52,North,0,1.0,5.0,95,0.00,,,0.00,WeatherCatV1.13B119,2013-03-01 09:30:00,
2013-03-01 04:35:00,29.8,28.5,29.52,North,0,1.0,5.0,95,0.00,,,0.00,WeatherCatV1.13B119,2013-03-01 09:35:00,
2013-03-01 04:40:00,29.6,28.3,29.52,NNE,22,1.0,2.0,95,0.00,,,0.00,WeatherCatV1.13B119,2013-03-01 09:40:00,
2013-03-01 04:45:00,29.6,28.3,29.52,NNE,22,1.0,2.0,95,0.00,,,0.00,WeatherCatV1.13B119,2013-03-01 09:45:00,
2013-03-01 04:50:00,29.6,28.3,29.52,NNE,22,1.0,2.0,95,0.00,,,0.00,WeatherCatV1.13B119,2013-03-01 09:50:00,
2013-03-01 04:55:00,29.4,28.1,29.53,NNE,22,0.0,3.0,95,0.00,,,0.00,WeatherCatV1.13B119,2013-03-01 09:55:00,
2013-03-01 05:00:00,29.4,28.1,29.53,NNE,22,0.0,3.0,95,0.00,,,0.00,WeatherCatV1.13B119,2013-03-01 10:00:00,
2013-03-01 05:05:00,29.4,28.1,29.53,NNE,22,0.0,3.0,95,0.00,,,0.00,WeatherCatV1.13B119,2013-03-01 10:05:00,
2013-03-01 05:10:00,29.3,28.0,29.53,NNE,22,0.0,3.0,95,0.00,,,0.00,WeatherCatV1.13B119,2013-03-01 10:10:00,
2013-03-01 05:15:00,29.3,28.0,29.53,NNE,22,0.0,3.0,95,0.00,,,0.00,WeatherCatV1.13B119,2013-03-01 10:15:00,
2013-03-01 05:20:00,29.3,28.0,29.53,NNE,22,0.0,3.0,95,0.00,,,0.00,WeatherCatV1.13B119,2013-03-01 10:20:00,
2013-03-01 05:25:00,29.3,28.0,29.53,NNE,22,0.0,3.0,95,0.00,,,0.00,WeatherCatV1.13B119,2013-03-01 10:25:00,
2013-03-01 05:30:00,29.4,28.1,29.53,NNE,22,0.0,3.0,95,0.00,,,0.00,WeatherCatV1.13B119,2013-03-01 10:30:00,
2013-03-01 05:35:00,29.4,28.1,29.53,NNE,22,0.0,3.0,95,0.00,,,0.00,WeatherCatV1.13B119,2013-03-01 10:35:00,
2013-03-01 05:40:00,29.4,28.1,29.53,NNE,22,0.0,3.0,95,0.00,,,0.00,WeatherCatV1.13B119,2013-03-01 10:40:00,
2013-03-01 05:45:00,29.2,28.0,29.54,NNE,22,0.0,0.0,95,0.00,,,0.00,WeatherCatV1.13B119,2013-03-01 10:45:00,
2013-03-01 05:50:00,29.2,28.0,29.54,NNE,22,0.0,0.0,95,0.00,,,0.00,WeatherCatV1.13B119,2013-03-01 10:50:00,
2013-03-01 05:55:00,29.2,28.0,29.54,NNE,22,0.0,0.0,95,0.00,,,0.00,WeatherCatV1.13B119,2013-03-01 10:55:00,
2013-03-01 06:00:00,28.7,27.4,29.54,NNE,22,0.0,0.0,95,0.00,,,0.00,WeatherCatV1.13B119,2013-03-01 11:00:00,
2013-03-01 06:05:00,28.7,27.4,29.54,NNE,22,0.0,0.0,95,0.00,,,0.00,WeatherCatV1.13B119,2013-03-01 11:05:00,
2013-03-01 06:10:00,28.7,27.4,29.54,NNE,22,0.0,0.0,95,0.00,,,0.00,WeatherCatV1.13B119,2013-03-01 11:10:00,
2013-03-01 06:15:00,27.8,26.6,29.54,NNE,22,0.0,0.0,95,0.00,,,0.00,WeatherCatV1.13B119,2013-03-01 11:15:00,
2013-03-01 06:20:00,27.8,26.6,29.54,NNE,22,0.0,0.0,95,0.00,,,0.00,WeatherCatV1.13B119,2013-03-01 11:20:00,
2013-03-01 06:25:00,27.8,26.6,29.54,NNE,22,0.0,0.0,95,0.00,,,0.00,WeatherCatV1.13B119,2013-03-01 11:25:00,
2013-03-01 06:30:00,27.5,26.3,29.54,NNE,22,0.0,2.0,95,0.00,,,0.00,WeatherCatV1.13B119,2013-03-01 11:30:00,
2013-03-01 06:35:00,27.5,26.3,29.54,NNE,22,0.0,2.0,95,0.00,,,0.00,WeatherCatV1.13B119,2013-03-01 11:35:00,
2013-03-01 06:40:00,27.5,26.3,29.54,NNE,22,0.0,2.0,95,0.00,,,0.00,WeatherCatV1.13B119,2013-03-01 11:40:00,
2013-03-01 06:45:00,27.4,26.2,29.55,NNE,22,0.0,0.0,95,0.00,,,0.00,WeatherCatV1.13B119,2013-03-01 11:45:00,
2013-03-01 06:50:00,27.4,26.2,29.55,NNE,22,0.0,0.0,95,0.00,,,0.00,WeatherCatV1.13B119,2013-03-01 11:50:00,
2013-03-01 06:55:00,27.4,26.2,29.55,NNE,22,0.0,0.0,95,0.00,,,0.00,WeatherCatV1.13B119,2013-03-01 11:55:00,
2013-03-01 07:00:00,27.9,26.7,29.55,NNE,22,0.0,1.0,95,0.00,,,0.00,WeatherCatV1.13B119,2013-03-01 12:00:00,
2013-03-01 07:05:00,27.9,26.7,29.55,NNE,22,0.0,1.0,95,0.00,,,0.00,WeatherCatV1.13B119,2013-03-01 12:05:00,
2013-03-01 07:10:00,27.9,26.7,29.55,NNE,22,0.0,1.0,95,0.00,,,0.00,WeatherCatV1.13B119,2013-03-01 12:10:00,
2013-03-01 07:15:00,28.2,27.0,29.56,NNE,22,0.0,1.0,95,0.00,,,0.00,WeatherCatV1.13B119,2013-03-01 12:15:00,
2013-03-01 07:20:00,28.2,27.0,29.56,NNE,22,0.0,1.0,95,0.00,,,0.00,WeatherCatV1.13B119,2013-03-01 12:20:00,
2013-03-01 07:25:00,28.3,27.0,29.57,NNE,22,0.0,2.0,95,0.00,,,0.00,WeatherCatV1.13B119,2013-03-01 12:25:00,
2013-03-01 07:30:00,28.3,27.0,29.57,NNE,22,0.0,2.0,95,0.00,,,0.00,WeatherCatV1.13B119,2013-03-01 12:30:00,
2013-03-01 07:35:00,28.3,27.0,29.57,NNE,22,0.0,2.0,95,0.00,,,0.00,WeatherCatV1.13B119,2013-03-01 12:35:00,
2013-03-01 07:40:00,28.7,27.4,29.58,NNE,22,0.0,1.0,95,0.00,,,0.00,WeatherCatV1.13B119,2013-03-01 12:40:00,
2013-03-01 07:45:00,28.7,27.4,29.58,NNE,22,0.0,1.0,95,0.00,,,0.00,WeatherCatV1.13B119,2013-03-01 12:45:00,
2013-03-01 07:50:00,28.7,27.4,29.58,NNE,22,0.0,1.0,95,0.00,,,0.00,WeatherCatV1.13B119,2013-03-01 12:50:00,
2013-03-01 07:55:00,29.3,28.0,29.58,NNE,22,0.0,1.0,95,0.00,,,0.00,WeatherCatV1.13B119,2013-03-01 12:55:00,
2013-03-01 08:00:00,29.3,28.0,29.58,NNE,22,0.0,1.0,95,0.00,,,0.00,WeatherCatV1.13B119,2013-03-01 13:00:00,
2013-03-01 08:05:00,29.3,28.0,29.58,NNE,22,0.0,1.0,95,0.00,,,0.00,WeatherCatV1.13B119,2013-03-01 13:05:00,
2013-03-01 08:10:00,30.0,28.7,29.58,NNE,22,1.0,4.0,95,0.00,,,0.00,WeatherCatV1.13B119,2013-03-01 13:10:00,
2013-03-01 08:15:00,30.0,28.7,29.58,NNE,22,1.0,4.0,95,0.00,,,0.00,WeatherCatV1.13B119,2013-03-01 13:15:00,
2013-03-01 08:20:00,30.0,28.7,29.58,NNE,22,1.0,4.0,95,0.00,,,0.00,WeatherCatV1.13B119,2013-03-01 13:20:00,
2013-03-01 08:25:00,30.5,29.2,29.58,SE,135,0.0,2.0,95,0.00,,,0.00,WeatherCatV1.13B119,2013-03-01 13:25:00,
2013-03-01 08:30:00,30.5,29.2,29.58,SE,135,0.0,2.0,95,0.00,,,0.00,WeatherCatV1.13B119,2013-03-01 13:30:00,
2013-03-01 08:35:00,30.5,29.2,29.58,SE,135,0.0,2.0,95,0.00,,,0.00,WeatherCatV1.13B119,2013-03-01 13:35:00,
2013-03-01 08:40:00,30.8,29.5,29.58,SE,135,0.0,2.0,95,0.00,,,0.00,WeatherCatV1.13B119,2013-03-01 13:40:00,
2013-03-01 08:45:00,30.8,29.5,29.58,SE,135,0.0,2.0,95,0.00,,,0.00,WeatherCatV1.13B119,2013-03-01 13:45:00,
2013-03-01 08:50:00,30.8,29.5,29.58,SE,135,0.0,2.0,95,0.00,,,0.00,WeatherCatV1.13B119,2013-03-01 13:50:00,
2013-03-01 08:55:00,31.2,29.9,29.58,SE,135,1.0,4.0,95,0.00,,,0.00,WeatherCatV1.13B119,2013-03-01 13:55:00,
2013-03-01 09:00:00,31.2,29.9,29.58,SE,135,1.0,4.0,95,0.00,,,0.00,WeatherCatV1.13B119,2013-03-01 14:00:00,
2013-03-01 09:05:00,31.2,29.9,29.58,SE,135,1.0,4.0,95,0.00,,,0.00,WeatherCatV1.13B119,2013-03-01 14:05:00,
2013-03-01 09:10:00,31.9,29.8,29.59,SSE,158,1.0,7.0,92,0.00,,,0.00,WeatherCatV1.13B119,2013-03-01 14:10:00,
2013-03-01 09:15:00,31.9,29.8,29.59,SSE,158,1.0,7.0,92,0.00,,,0.00,WeatherCatV1.13B119,2013-03-01 14:15:00,
2013-03-01 09:20:00,31.9,29.8,29.59,SSE,158,1.0,7.0,92,0.00,,,0.00,WeatherCatV1.13B119,2013-03-01 14:20:00,
2013-03-01 09:25:00,33.0,29.6,29.59,SSE,158,0.0,3.0,87,0.00,,,0.00,WeatherCatV1.13B119,2013-03-01 14:25:00,
2013-03-01 09:30:00,33.0,29.6,29.59,SSE,158,0.0,3.0,87,0.00,,,0.00,WeatherCatV1.13B119,2013-03-01 14:30:00,
2013-03-01 09:35:00,33.0,29.6,29.59,SSE,158,0.0,3.0,87,0.00,,,0.00,WeatherCatV1.13B119,2013-03-01 14:35:00,
2013-03-01 09:40:00,33.8,29.2,29.59,SE,135,1.0,4.0,83,0.00,,,0.00,WeatherCatV1.13B119,2013-03-01 14:40:00,
2013-03-01 09:45:00,33.8,29.2,29.59,SE,135,1.0,4.0,83,0.00,,,0.00,WeatherCatV1.13B119,2013-03-01 14:45:00,
2013-03-01 09:50:00,33.8,29.2,29.59,SE,135,1.0,4.0,83,0.00,,,0.00,WeatherCatV1.13B119,2013-03-01 14:50:00,
2013-03-01 09:55:00,34.1,28.6,29.59,SSE,158,1.0,4.0,80,0.00,,,0.00,WeatherCatV1.13B119,2013-03-01 14:55:00,
2013-03-01 10:00:00,34.1,28.6,29.59,SSE,158,1.0,4.0,80,0.00,,,0.00,WeatherCatV1.13B119,2013-03-01 15:00:00,
2013-03-01 10:05:00,34.1,28.6,29.59,SSE,158,1.0,4.0,80,0.00,,,0.00,WeatherCatV1.13B119,2013-03-01 15:05:00,
2013-03-01 10:10:00,33.7,27.9,29.59,SSW,202,2.0,5.0,79,0.00,,,0.00,WeatherCatV1.13B119,2013-03-01 15:10:00,
2013-03-01 10:15:00,33.7,27.9,29.59,SSW,202,2.0,5.0,79,0.00,,,0.00,WeatherCatV1.13B119,2013-03-01 15:15:00,
2013-03-01 10:20:00,33.7,27.9,29.59,SSW,202,2.0,5.0,79,0.00,,,0.00,WeatherCatV1.13B119,2013-03-01 15:20:00,
2013-03-01 10:25:00,33.7,27.6,29.59,East,90,1.0,4.0,78,0.00,,,0.00,WeatherCatV1.13B119,2013-03-01 15:25:00,
2013-03-01 10:30:00,33.7,27.6,29.59,East,90,1.0,4.0,78,0.00,,,0.00,WeatherCatV1.13B119,2013-03-01 15:30:00,
2013-03-01 10:35:00,33.7,27.6,29.59,East,90,1.0,4.0,78,0.00,,,0.00,WeatherCatV1.13B119,2013-03-01 15:35:00,
2013-03-01 10:40:00,34.0,27.9,29.60,ESE,112,2.0,6.0,78,0.00,,,0.00,WeatherCatV1.13B119,2013-03-01 15:40:00,
2013-03-01 10:45:00,34.0,27.9,29.60,ESE,112,2.0,6.0,78,0.00,,,0.00,WeatherCatV1.13B119,2013-03-01 15:45:00,
2013-03-01 10:50:00,34.0,27.9,29.60,ESE,112,2.0,6.0,78,0.00,,,0.00,WeatherCatV1.13B119,2013-03-01 15:50:00,
2013-03-01 10:55:00,34.4,27.6,29.59,ESE,112,2.0,7.0,76,0.00,,,0.00,WeatherCatV1.13B119,2013-03-01 15:55:00,
2013-03-01 11:00:00,34.4,27.6,29.59,ESE,112,2.0,7.0,76,0.00,,,0.00,WeatherCatV1.13B119,2013-03-01 16:00:00,
2013-03-01 11:05:00,34.4,27.6,29.59,ESE,112,2.0,7.0,76,0.00,,,0.00,WeatherCatV1.13B119,2013-03-01 16:05:00,
2013-03-01 11:10:00,35.2,27.8,29.59,SE,135,1.0,5.0,74,0.00,,,0.00,WeatherCatV1.13B119,2013-03-01 16:10:00,
2013-03-01 11:15:00,35.2,27.8,29.59,SE,135,1.0,5.0,74,0.00,,,0.00,WeatherCatV1.13B119,2013-03-01 16:15:00,
2013-03-01 11:20:00,35.2,27.8,29.59,SE,135,1.0,5.0,74,0.00,,,0.00,WeatherCatV1.13B119,2013-03-01 16:20:00,
2013-03-01 11:25:00,36.0,27.5,29.59,ESE,112,1.0,5.0,71,0.00,,,0.00,WeatherCatV1.13B119,2013-03-01 16:25:00,
2013-03-01 11:30:00,36.0,27.5,29.59,ESE,112,1.0,5.0,71,0.00,,,0.00,WeatherCatV1.13B119,2013-03-01 16:30:00,
2013-03-01 11:35:00,36.0,27.5,29.59,ESE,112,1.0,5.0,71,0.00,,,0.00,WeatherCatV1.13B119,2013-03-01 16:35:00,
2013-03-01 11:40:00,35.8,27.0,29.59,SE,135,2.0,6.0,70,0.00,,,0.00,WeatherCatV1.13B119,2013-03-01 16:40:00,
2013-03-01 11:45:00,35.8,27.0,29.59,SE,135,2.0,6.0,70,0.00,,,0.00,WeatherCatV1.13B119,2013-03-01 16:45:00,
2013-03-01 11:50:00,35.8,27.0,29.59,SE,135,2.0,6.0,70,0.00,,,0.00,WeatherCatV1.13B119,2013-03-01 16:50:00,
2013-03-01 11:55:00,35.5,27.0,29.60,SE,135,3.0,10.0,71,0.00,,,0.00,WeatherCatV1.13B119,2013-03-01 16:55:00,
2013-03-01 12:00:00,35.5,27.0,29.60,SE,135,3.0,10.0,71,0.00,,,0.00,WeatherCatV1.13B119,2013-03-01 17:00:00,
2013-03-01 12:05:00,35.5,27.0,29.60,SE,135,3.0,10.0,71,0.00,,,0.00,WeatherCatV1.13B119,2013-03-01 17:05:00,
2013-03-01 12:10:00,35.0,26.9,29.60,SE,135,2.0,7.0,72,0.00,,,0.00,WeatherCatV1.13B119,2013-03-01 17:10:00,
2013-03-01 12:15:00,35.0,26.9,29.60,SE,135,2.0,7.0,72,0.00,,,0.00,WeatherCatV1.13B119,2013-03-01 17:15:00,
2013-03-01 12:20:00,35.0,26.9,29.60,SE,135,2.0,7.0,72,0.00,,,0.00,WeatherCatV1.13B119,2013-03-01 17:20:00,
2013-03-01 12:25:00,34.7,26.6,29.60,SE,135,1.0,3.0,72,0.00,,,0.00,WeatherCatV1.13B119,2013-03-01 17:25:00,
2013-03-01 12:30:00,34.7,26.6,29.60,SE,135,1.0,3.0,72,0.00,,,0.00,WeatherCatV1.13B119,2013-03-01 17:30:00,
2013-03-01 12:35:00,34.7,26.6,29.60,SE,135,1.0,3.0,72,0.00,,,0.00,WeatherCatV1.13B119,2013-03-01 17:35:00,
2013-03-01 12:40:00,34.9,26.8,29.60,SE,135,1.0,4.0,72,0.00,,,0.00,WeatherCatV1.13B119,2013-03-01 17:40:00,
2013-03-01 12:45:00,34.9,26.8,29.60,SE,135,1.0,4.0,72,0.00,,,0.00,WeatherCatV1.13B119,2013-03-01 17:45:00,
2013-03-01 12:50:00,34.9,26.8,29.60,SE,135,1.0,4.0,72,0.00,,,0.00,WeatherCatV1.13B119,2013-03-01 17:50:00,
2013-03-01 12:55:00,35.2,27.1,29.60,ESE,112,1.0,3.0,72,0.00,,,0.00,WeatherCatV1.13B119,2013-03-01 17:55:00,
2013-03-01 13:00:00,35.2,27.1,29.60,ESE,112,1.0,3.0,72,0.00,,,0.00,WeatherCatV1.13B119,2013-03-01 18:00:00,
2013-03-01 13:05:00,35.2,27.1,29.60,ESE,112,1.0,3.0,72,0.00,,,0.00,WeatherCatV1.13B119,2013-03-01 18:05:00,
2013-03-01 13:10:00,35.0,26.9,29.60,ESE,112,1.0,3.0,72,0.00,,,0.00,WeatherCatV1.13B119,2013-03-01 18:10:00,
2013-03-01 13:15:00,35.0,26.9,29.60,ESE,112,1.0,3.0,72,0.00,,,0.00,WeatherCatV1.13B119,2013-03-01 18:15:00,
2013-03-01 13:20:00,35.0,26.9,29.60,ESE,112,1.0,3.0,72,0.00,,,0.00,WeatherCatV1.13B119,2013-03-01 18:20:00,
2013-03-01 13:25:00,34.4,26.7,29.60,ESE,112,1.0,5.0,73,0.00,,,0.00,WeatherCatV1.13B119,2013-03-01 18:25:00,
2013-03-01 13:30:00,34.4,26.7,29.60,ESE,112,1.0,5.0,73,0.00,,,0.00,WeatherCatV1.13B119,2013-03-01 18:30:00,
2013-03-01 13:35:00,34.4,26.7,29.60,ESE,112,1.0,5.0,73,0.00,,,0.00,WeatherCatV1.13B119,2013-03-01 18:35:00,
2013-03-01 13:40:00,34.4,27.0,29.60,ESE,112,2.0,8.0,74,0.00,,,0.00,WeatherCatV1.13B119,2013-03-01 18:40:00,
2013-03-01 13:45:00,34.4,27.0,29.60,ESE,112,2.0,8.0,74,0.00,,,0.00,WeatherCatV1.13B119,2013-03-01 18:45:00,
2013-03-01 13:50:00,34.4,27.0,29.60,ESE,112,2.0,8.0,74,0.00,,,0.00,WeatherCatV1.13B119,2013-03-01 18:50:00,
2013-03-01 13:55:00,34.4,26.7,29.60,ESE,112,1.0,4.0,73,0.00,,,0.00,WeatherCatV1.13B119,2013-03-01 18:55:00,
2013-03-01 14:00:00,34.4,26.7,29.60,ESE,112,1.0,4.0,73,0.00,,,0.00,WeatherCatV1.13B119,2013-03-01 19:00:00,
2013-03-01 14:05:00,34.4,26.7,29.60,ESE,112,1.0,4.0,73,0.00,,,0.00,WeatherCatV1.13B119,2013-03-01 19:05:00,
2013-03-01 14:10:00,34.4,27.0,29.60,East,90,1.0,5.0,74,0.00,,,0.00,WeatherCatV1.13B119,2013-03-01 19:10:00,
2013-03-01 14:15:00,34.4,27.0,29.60,East,90,1.0,5.0,74,0.00,,,0.00,WeatherCatV1.13B119,2013-03-01 19:15:00,
2013-03-01 14:20:00,34.4,27.0,29.60,East,90,1.0,5.0,74,0.00,,,0.00,WeatherCatV1.13B119,2013-03-01 19:20:00,
2013-03-01 14:25:00,34.3,26.6,29.60,SE,135,2.0,5.0,73,0.00,,,0.00,WeatherCatV1.13B119,2013-03-01 19:25:00,
2013-03-01 14:30:00,34.3,26.6,29.60,SE,135,2.0,5.0,73,0.00,,,0.00,WeatherCatV1.13B119,2013-03-01 19:30:00,
2013-03-01 14:35:00,34.3,26.6,29.60,SE,135,2.0,5.0,73,0.00,,,0.00,WeatherCatV1.13B119,2013-03-01 19:35:00,
2013-03-01 14:40:00,34.2,26.1,29.61,ESE,112,2.0,5.0,72,0.00,,,0.00,WeatherCatV1.13B119,2013-03-01 19:40:00,
2013-03-01 14:45:00,34.2,26.1,29.61,ESE,112,2.0,5.0,72,0.00,,,0.00,WeatherCatV1.13B119,2013-03-01 19:45:00,
2013-03-01 14:50:00,34.2,26.1,29.61,ESE,112,2.0,5.0,72,0.00,,,0.00,WeatherCatV1.13B119,2013-03-01 19:50:00,
2013-03-01 14:55:00,34.2,25.8,29.61,SSW,202,2.0,6.0,71,0.00,,,0.00,WeatherCatV1.13B119,2013-03-01 19:55:00,
2013-03-01 15:00:00,34.2,25.8,29.61,SSW,202,2.0,6.0,71,0.00,,,0.00,WeatherCatV1.13B119,2013-03-01 20:00:00,
2013-03-01 15:05:00,34.2,25.8,29.61,SSW,202,2.0,6.0,71,0.00,,,0.00,WeatherCatV1.13B119,2013-03-01 20:05:00,
2013-03-01 15:10:00,34.3,26.6,29.61,ESE,112,1.0,5.0,73,0.00,,,0.00,WeatherCatV1.13B119,2013-03-01 20:10:00,
2013-03-01 15:15:00,34.3,26.6,29.61,ESE,112,1.0,5.0,73,0.00,,,0.00,WeatherCatV1.13B119,2013-03-01 20:15:00,
2013-03-01 15:20:00,34.3,26.6,29.61,ESE,112,1.0,5.0,73,0.00,,,0.00,WeatherCatV1.13B119,2013-03-01 20:20:00,
2013-03-01 15:25:00,34.2,26.5,29.60,ESE,112,1.0,5.0,73,0.00,,,0.00,WeatherCatV1.13B119,2013-03-01 20:25:00,
2013-03-01 15:30:00,34.2,26.5,29.60,ESE,112,1.0,5.0,73,0.00,,,0.00,WeatherCatV1.13B119,2013-03-01 20:30:00,
2013-03-01 15:35:00,34.2,26.5,29.60,ESE,112,1.0,5.0,73,0.00,,,0.00,WeatherCatV1.13B119,2013-03-01 20:35:00,
2013-03-01 15:40:00,34.3,26.6,29.60,SE,135,1.0,4.0,73,0.00,,,0.00,WeatherCatV1.13B119,2013-03-01 20:40:00,
2013-03-01 15:45:00,34.3,26.6,29.60,SE,135,1.0,4.0,73,0.00,,,0.00,WeatherCatV1.13B119,2013-03-01 20:45:00,
2013-03-01 15:50:00,34.3,26.6,29.60,SE,135,1.0,4.0,73,0.00,,,0.00,WeatherCatV1.13B119,2013-03-01 20:50:00,
2013-03-01 15:55:00,34.3,26.6,29.61,ESE,112,1.0,3.0,73,0.00,,,0.00,WeatherCatV1.13B119,2013-03-01 20:55:00,
2013-03-01 16:00:00,34.3,26.6,29.61,ESE,112,1.0,3.0,73,0.00,,,0.00,WeatherCatV1.13B119,2013-03-01 21:00:00,
2013-03-01 16:05:00,34.3,26.6,29.61,ESE,112,1.0,3.0,73,0.00,,,0.00,WeatherCatV1.13B119,2013-03-01 21:05:00,
2013-03-01 16:10:00,34.1,26.0,29.61,SE,135,2.0,4.0,72,0.00,,,0.00,WeatherCatV1.13B119,2013-03-01 21:10:00,
2013-03-01 16:15:00,34.1,26.0,29.61,SE,135,2.0,4.0,72,0.00,,,0.00,WeatherCatV1.13B119,2013-03-01 21:15:00,
2013-03-01 16:20:00,34.1,26.0,29.61,SE,135,2.0,4.0,72,0.00,,,0.00,WeatherCatV1.13B119,2013-03-01 21:20:00,
2013-03-01 16:25:00,34.1,26.4,29.61,ESE,112,1.0,6.0,73,0.00,,,0.00,WeatherCatV1.13B119,2013-03-01 21:25:00,
2013-03-01 16:30:00,34.1,26.4,29.61,ESE,112,1.0,6.0,73,0.00,,,0.00,WeatherCatV1.13B119,2013-03-01 21:30:00,
2013-03-01 16:35:00,34.1,26.4,29.61,ESE,112,1.0,6.0,73,0.00,,,0.00,WeatherCatV1.13B119,2013-03-01 21:35:00,
2013-03-01 16:40:00,33.9,25.8,29.61,ESE,112,1.0,4.0,72,0.00,,,0.00,WeatherCatV1.13B119,2013-03-01 21:40:00,
2013-03-01 16:45:00,33.9,25.8,29.61,ESE,112,1.0,4.0,72,0.00,,,0.00,WeatherCatV1.13B119,2013-03-01 21:45:00,
2013-03-01 16:50:00,33.9,25.8,29.61,ESE,112,1.0,4.0,72,0.00,,,0.00,WeatherCatV1.13B119,2013-03-01 21:50:00,
2013-03-01 16:55:00,33.7,25.6,29.62,SE,135,1.0,5.0,72,0.00,,,0.00,WeatherCatV1.13B119,2013-03-01 21:55:00,
2013-03-01 17:00:00,33.7,25.6,29.62,SE,135,1.0,5.0,72,0.00,,,0.00,WeatherCatV1.13B119,2013-03-01 22:00:00,
2013-03-01 17:05:00,33.7,25.6,29.62,SE,135,1.0,5.0,72,0.00,,,0.00,WeatherCatV1.13B119,2013-03-01 22:05:00,
2013-03-01 17:10:00,33.6,25.6,29.62,NNE,22,2.0,10.0,72,0.00,,,0.00,WeatherCatV1.13B119,2013-03-01 22:10:00,
2013-03-01 17:15:00,33.6,25.6,29.62,NNE,22,2.0,10.0,72,0.00,,,0.00,WeatherCatV1.13B119,2013-03-01 22:15:00,
2013-03-01 17:20:00,33.6,25.6,29.62,NNE,22,2.0,10.0,72,0.00,,,0.00,WeatherCatV1.13B119,2013-03-01 22:20:00,
2013-03-01 17:25:00,33.3,25.6,29.62,East,90,1.0,5.0,73,0.00,,,0.00,WeatherCatV1.13B119,2013-03-01 22:25:00,
2013-03-01 17:30:00,33.3,25.6,29.62,East,90,1.0,5.0,73,0.00,,,0.00,WeatherCatV1.13B119,2013-03-01 22:30:00,
2013-03-01 17:35:00,33.3,25.6,29.62,East,90,1.0,5.0,73,0.00,,,0.00,WeatherCatV1.13B119,2013-03-01 22:35:00,
2013-03-01 17:40:00,33.1,25.1,29.63,ESE,112,1.0,5.0,72,0.00,,,0.00,WeatherCatV1.13B119,2013-03-01 22:40:00,
2013-03-01 17:45:00,33.1,25.1,29.63,ESE,112,1.0,5.0,72,0.00,,,0.00,WeatherCatV1.13B119,2013-03-01 22:45:00,
2013-03-01 17:50:00,33.1,25.1,29.63,ESE,112,1.0,5.0,72,0.00,,,0.00,WeatherCatV1.13B119,2013-03-01 22:50:00,
2013-03-01 17:55:00,32.8,25.4,29.64,NE,45,2.0,4.0,74,0.00,,,0.00,WeatherCatV1.13B119,2013-03-01 22:55:00,
2013-03-01 18:00:00,32.8,25.4,29.64,NE,45,2.0,4.0,74,0.00,,,0.00,WeatherCatV1.13B119,2013-03-01 23:00:00,
2013-03-01 18:05:00,32.8,25.4,29.64,NE,45,2.0,4.0,74,0.00,,,0.00,WeatherCatV1.13B119,2013-03-01 23:05:00,
2013-03-01 18:10:00,32.9,25.2,29.64,ESE,112,2.0,9.0,73,0.00,,,0.00,WeatherCatV1.13B119,2013-03-01 23:10:00,
2013-03-01 18:15:00,32.9,25.2,29.64,ESE,112,2.0,9.0,73,0.00,,,0.00,WeatherCatV1.13B119,2013-03-01 23:15:00,
2013-03-01 18:20:00,32.9,25.2,29.64,ESE,112,2.0,9.0,73,0.00,,,0.00,WeatherCatV1.13B119,2013-03-01 23:20:00,
2013-03-01 18:25:00,32.7,25.3,29.64,ESE,112,2.0,4.0,74,0.00,,,0.00,WeatherCatV1.13B119,2013-03-01 23:25:00,
2013-03-01 18:30:00,32.7,25.3,29.64,ESE,112,2.0,4.0,74,0.00,,,0.00,WeatherCatV1.13B119,2013-03-01 23:30:00,
2013-03-01 18:35:00,32.7,25.3,29.64,ESE,112,2.0,4.0,74,0.00,,,0.00,WeatherCatV1.13B119,2013-03-01 23:35:00,
2013-03-01 18:40:00,32.3,25.9,29.64,ESE,112,2.0,5.0,77,0.00,,,0.00,WeatherCatV1.13B119,2013-03-01 23:40:00,
2013-03-01 18:45:00,32.3,25.9,29.64,ESE,112,2.0,5.0,77,0.00,,,0.00,WeatherCatV1.13B119,2013-03-01 23:45:00,
2013-03-01 18:50:00,32.3,25.9,29.64,ESE,112,2.0,5.0,77,0.00,,,0.00,WeatherCatV1.13B119,2013-03-01 23:50:00,
2013-03-01 18:55:00,32.0,25.6,29.64,ESE,112,2.0,4.0,77,0.00,,,0.00,WeatherCatV1.13B119,2013-03-01 23:55:00,
2013-03-01 19:00:00,32.0,25.6,29.64,ESE,112,2.0,4.0,77,0.00,,,0.00,WeatherCatV1.13B119,2013-03-02 00:00:00,
2013-03-01 19:05:00,32.0,25.6,29.64,ESE,112,2.0,4.0,77,0.00,,,0.00,WeatherCatV1.13B119,2013-03-02 00:05:00,
2013-03-01 19:10:00,31.8,25.7,29.64,ESE,112,2.0,5.0,78,0.00,,,0.00,WeatherCatV1.13B119,2013-03-02 00:10:00,
2013-03-01 19:15:00,31.8,25.7,29.64,ESE,112,2.0,5.0,78,0.00,,,0.00,WeatherCatV1.13B119,2013-03-02 00:15:00,
2013-03-01 19:20:00,31.8,25.7,29.64,ESE,112,2.0,5.0,78,0.00,,,0.00,WeatherCatV1.13B119,2013-03-02 00:20:00,
2013-03-01 19:25:00,31.7,26.0,29.64,NE,45,1.0,5.0,79,0.00,,,0.00,WeatherCatV1.13B119,2013-03-02 00:25:00,
2013-03-01 19:30:00,31.7,26.0,29.64,NE,45,1.0,5.0,79,0.00,,,0.00,WeatherCatV1.13B119,2013-03-02 00:30:00,
2013-03-01 19:35:00,31.7,26.0,29.64,NE,45,1.0,5.0,79,0.00,,,0.00,WeatherCatV1.13B119,2013-03-02 00:35:00,
2013-03-01 19:40:00,31.8,25.4,29.64,ESE,112,2.0,7.0,77,0.00,,,0.00,WeatherCatV1.13B119,2013-03-02 00:40:00,
2013-03-01 19:45:00,31.8,25.4,29.64,ESE,112,2.0,7.0,77,0.00,,,0.00,WeatherCatV1.13B119,2013-03-02 00:45:00,
2013-03-01 19:50:00,31.8,25.4,29.64,ESE,112,2.0,7.0,77,0.00,,,0.00,WeatherCatV1.13B119,2013-03-02 00:50:00,
2013-03-01 19:55:00,31.9,25.5,29.64,East,90,2.0,6.0,77,0.00,,,0.00,WeatherCatV1.13B119,2013-03-02 00:55:00,
2013-03-01 20:00:00,31.9,25.5,29.64,East,90,2.0,6.0,77,0.00,,,0.00,WeatherCatV1.13B119,2013-03-02 01:00:00,
2013-03-01 20:05:00,31.9,25.5,29.64,East,90,2.0,6.0,77,0.00,,,0.00,WeatherCatV1.13B119,2013-03-02 01:05:00,
2013-03-01 20:10:00,32.0,25.3,29.64,East,90,1.0,4.0,76,0.00,,,0.00,WeatherCatV1.13B119,2013-03-02 01:10:00,
2013-03-01 20:15:00,32.0,25.3,29.64,East,90,1.0,4.0,76,0.00,,,0.00,WeatherCatV1.13B119,2013-03-02 01:15:00,
2013-03-01 20:20:00,32.0,25.3,29.64,East,90,1.0,4.0,76,0.00,,,0.00,WeatherCatV1.13B119,2013-03-02 01:20:00,
2013-03-01 20:25:00,31.8,25.4,29.64,ENE,68,2.0,9.0,77,0.00,,,0.00,WeatherCatV1.13B119,2013-03-02 01:25:00,
2013-03-01 20:30:00,31.8,25.4,29.64,ENE,68,2.0,9.0,77,0.00,,,0.00,WeatherCatV1.13B119,2013-03-02 01:30:00,
2013-03-01 20:35:00,31.8,25.4,29.64,ENE,68,2.0,9.0,77,0.00,,,0.00,WeatherCatV1.13B119,2013-03-02 01:35:00,
2013-03-01 20:40:00,31.6,25.2,29.64,WSW,248,1.0,4.0,77,0.00,,,0.00,WeatherCatV1.13B119,2013-03-02 01:40:00,
2013-03-01 20:45:00,31.6,25.2,29.64,WSW,248,1.0,4.0,77,0.00,,,0.00,WeatherCatV1.13B119,2013-03-02 01:45:00,
2013-03-01 20:50:00,31.6,25.2,29.64,WSW,248,1.0,4.0,77,0.00,,,0.00,WeatherCatV1.13B119,2013-03-02 01:50:00,
2013-03-01 20:55:00,31.5,25.1,29.64,East,90,1.0,4.0,77,0.00,,,0.00,WeatherCatV1.13B119,2013-03-02 01:55:00,
2013-03-01 21:00:00,31.5,25.1,29.64,East,90,1.0,4.0,77,0.00,,,0.00,WeatherCatV1.13B119,2013-03-02 02:00:00,
2013-03-01 21:05:00,31.5,25.1,29.64,East,90,1.0,4.0,77,0.00,,,0.00,WeatherCatV1.13B119,2013-03-02 02:05:00,
2013-03-01 21:10:00,31.6,25.2,29.64,ESE,112,1.0,4.0,77,0.00,,,0.00,WeatherCatV1.13B119,2013-03-02 02:10:00,
2013-03-01 21:15:00,31.6,25.2,29.64,ESE,112,1.0,4.0,77,0.00,,,0.00,WeatherCatV1.13B119,2013-03-02 02:15:00,
2013-03-01 21:20:00,31.6,25.2,29.64,ESE,112,1.0,4.0,77,0.00,,,0.00,WeatherCatV1.13B119,2013-03-02 02:20:00,
2013-03-01 21:25:00,31.4,25.3,29.64,ESE,112,1.0,5.0,78,0.00,,,0.00,WeatherCatV1.13B119,2013-03-02 02:25:00,
2013-03-01 21:30:00,31.4,25.3,29.64,ESE,112,1.0,5.0,78,0.00,,,0.00,WeatherCatV1.13B119,2013-03-02 02:30:00,
2013-03-01 21:35:00,31.4,25.3,29.64,ESE,112,1.0,5.0,78,0.00,,,0.00,WeatherCatV1.13B119,2013-03-02 02:35:00,
2013-03-01 21:40:00,31.4,25.0,29.64,ESE,112,2.0,6.0,77,0.00,,,0.00,WeatherCatV1.13B119,2013-03-02 02:40:00,
2013-03-01 21:45:00,31.4,25.0,29.64,ESE,112,2.0,6.0,77,0.00,,,0.00,WeatherCatV1.13B119,2013-03-02 02:45:00,
2013-03-01 21:50:00,31.4,25.0,29.64,ESE,112,2.0,6.0,77,0.00,,,0.00,WeatherCatV1.13B119,2013-03-02 02:50:00,
2013-03-01 21:55:00,31.2,25.2,29.64,ENE,68,1.0,5.0,78,0.00,,,0.00,WeatherCatV1.13B119,2013-03-02 02:55:00,
2013-03-01 22:00:00,31.2,25.2,29.64,ENE,68,1.0,5.0,78,0.00,,,0.00,WeatherCatV1.13B119,2013-03-02 03:00:00,
2013-03-01 22:05:00,31.2,25.2,29.64,ENE,68,1.0,5.0,78,0.00,,,0.00,WeatherCatV1.13B119,2013-03-02 03:05:00,
2013-03-01 22:10:00,30.7,25.3,29.64,East,90,1.0,3.0,80,0.00,,,0.00,WeatherCatV1.13B119,2013-03-02 03:10:00,
2013-03-01 22:15:00,30.7,25.3,29.64,East,90,1.0,3.0,80,0.00,,,0.00,WeatherCatV1.13B119,2013-03-02 03:15:00,
2013-03-01 22:20:00,30.7,25.3,29.64,East,90,1.0,3.0,80,0.00,,,0.00,WeatherCatV1.13B119,2013-03-02 03:20:00,
2013-03-01 22:25:00,30.3,25.5,29.63,ENE,68,0.0,4.0,82,0.00,,,0.00,WeatherCatV1.13B119,2013-03-02 03:25:00,
2013-03-01 22:30:00,30.3,25.5,29.63,ENE,68,0.0,4.0,82,0.00,,,0.00,WeatherCatV1.13B119,2013-03-02 03:30:00,
2013-03-01 22:35:00,30.3,25.5,29.63,ENE,68,0.0,4.0,82,0.00,,,0.00,WeatherCatV1.13B119,2013-03-02 03:35:00,
2013-03-01 22:40:00,30.6,25.2,29.63,ENE,68,1.0,5.0,80,0.00,,,0.00,WeatherCatV1.13B119,2013-03-02 03:40:00,
2013-03-01 22:45:00,30.6,25.2,29.63,ENE,68,1.0,5.0,80,0.00,,,0.00,WeatherCatV1.13B119,2013-03-02 03:45:00,
2013-03-01 22:50:00,30.6,25.2,29.63,ENE,68,1.0,5.0,80,0.00,,,0.00,WeatherCatV1.13B119,2013-03-02 03:50:00,
2013-03-01 22:55:00,30.5,25.1,29.62,NE,45,1.0,5.0,80,0.00,,,0.00,WeatherCatV1.13B119,2013-03-02 03:55:00,
2013-03-01 23:00:00,30.5,25.1,29.62,NE,45,1.0,5.0,80,0.00,,,0.00,WeatherCatV1.13B119,2013-03-02 04:00:00,
2013-03-01 23:05:00,30.5,25.1,29.62,NE,45,1.0,5.0,80,0.00,,,0.00,WeatherCatV1.13B119,2013-03-02 04:05:00,
2013-03-01 23:10:00,30.5,24.8,29.62,SSW,202,1.0,6.0,79,0.00,,,0.00,WeatherCatV1.13B119,2013-03-02 04:10:00,
2013-03-01 23:15:00,30.5,24.8,29.62,SSW,202,1.0,6.0,79,0.00,,,0.00,WeatherCatV1.13B119,2013-03-02 04:15:00,
2013-03-01 23:20:00,30.5,24.8,29.62,SSW,202,1.0,6.0,79,0.00,,,0.00,WeatherCatV1.13B119,2013-03-02 04:20:00,
2013-03-01 23:25:00,30.4,24.7,29.63,ESE,112,1.0,4.0,79,0.00,,,0.00,WeatherCatV1.13B119,2013-03-02 04:25:00,
2013-03-01 23:30:00,30.4,24.7,29.63,ESE,112,1.0,4.0,79,0.00,,,0.00,WeatherCatV1.13B119,2013-03-02 04:30:00,
2013-03-01 23:35:00,30.4,24.7,29.63,ESE,112,1.0,4.0,79,0.00,,,0.00,WeatherCatV1.13B119,2013-03-02 04:35:00,
2013-03-01 23:40:00,30.2,24.8,29.62,ESE,112,1.0,4.0,80,0.00,,,0.00,WeatherCatV1.13B119,2013-03-02 04:40:00,
2013-03-01 23:45:00,30.2,24.8,29.62,ESE,112,1.0,4.0,80,0.00,,,0.00,WeatherCatV1.13B119,2013-03-02 04:45:00,
2013-03-01 23:50:00,30.2,24.8,29.62,ESE,112,1.0,4.0,80,0.00,,,0.00,WeatherCatV1.13B119,2013-03-02 04:50:00,
2013-03-01 23:55:00,30.1,25.0,29.62,NE,45,1.0,5.0,81,0.00,,,0.00,WeatherCatV1.13B119,2013-03-02 04:55:00,